Precipitable_Water
0.57 0.57 0.56 0.56 0.56 0.56 0.56 0.56 0.55 0.54 0.54 0.56 0.58 0.58 0.59 0.60 0.59 0.58 0.57 0.57 0.57 0.55 0.55 0.55 0.55 0.55 0.54 0.52 0.50 0.48 0.47 0.37 0.30 0.26 0.26 0.33 0.41 0.46 0.44 0.43 0.43 0.39 0.36 0.27 0.23 0.18 0.15 0.17 0.17 0.22 0.20 0.18 0.18 0.18 0.25 0.24 0.29 0.30 0.25 0.24 0.23 0.25 0.25 0.28 0.27 0.29 0.32 0.30 0.31 0.35 0.37 0.37 0.36 0.41 0.44 0.49 0.51 0.53 0.55 0.54 0.64 0.75 0.78 0.87 0.93 0.99 1.09 1.18
0.57 0.57 0.57 0.56 0.56 0.55 0.55 0.55 0.55 0.55 0.55 0.55 0.56 0.58 0.58 0.58 0.59 0.59 0.59 0.58 0.57 0.56 0.56 0.56 0.55 0.54 0.54 0.51 0.51 0.49 0.42 0.34 0.27 0.28 0.30 0.43 0.46 0.48 0.45 0.46 0.44 0.41 0.36 0.26 0.22 0.19 0.16 0.14 0.17 0.19 0.18 0.15 0.22 0.17 0.23 0.19 0.25 0.21 0.21 0.21 0.18 0.22 0.25 0.29 0.30 0.31 0.30 0.29 0.32 0.33 0.36 0.37 0.35 0.39 0.42 0.42 0.45 0.51 0.49 0.54 0.67 0.69 0.78 0.91 0.99 1.02 1.06 1.13
0.58 0.57 0.57 0.56 0.56 0.55 0.54 0.54 0.54 0.54 0.55 0.56 0.56 0.57 0.58 0.58 0.58 0.58 0.58 0.59 0.58 0.58 0.58 0.56 0.56 0.55 0.53 0.51 0.48 0.46 0.38 0.28 0.26 0.26 0.37 0.51 0.47 0.46 0.48 0.46 0.40 0.39 0.32 0.27 0.27 0.24 0.20 0.18 0.17 0.17 0.17 0.15 0.19 0.16 0.20 0.18 0.19 0.20 0.19 0.16 0.18 0.23 0.24 0.27 0.29 0.29 0.31 0.32 0.31 0.31 0.33 0.35 0.36 0.39 0.43 0.40 0.42 0.48 0.48 0.49 0.62 0.67 0.67 0.83 0.97 1.03 1.07 1.10
0.57 0.57 0.57 0.56 0.56 0.55 0.54 0.53 0.53 0.53 0.54 0.55 0.56 0.57 0.58 0.58 0.58 0.59 0.58 0.58 0.58 0.58 0.58 0.58 0.57 0.55 0.53 0.49 0.48 0.44 0.34 0.24 0.20 0.34 0.45 0.50 0.48 0.49 0.47 0.43 0.43 0.38 0.33 0.31 0.30 0.26 0.25 0.23 0.20 0.18 0.16 0.14 0.17 0.20 0.16 0.20 0.16 0.18 0.16 0.14 0.17 0.22 0.21 0.25 0.27 0.28 0.30 0.31 0.30 0.31 0.32 0.31 0.35 0.39 0.40 0.40 0.40 0.41 0.47 0.54 0.56 0.61 0.66 0.78 1.03 1.06 1.07 1.06
0.58 0.57 0.56 0.56 0.56 0.55 0.55 0.54 0.53 0.52 0.53 0.54 0.56 0.57 0.58 0.59 0.59 0.58 0.59 0.58 0.57 0.59 0.58 0.57 0.56 0.55 0.53 0.50 0.46 0.42 0.29 0.13 0.25 0.43 0.48 0.52 0.51 0.51 0.48 0.46 0.51 0.42 0.34 0.32 0.29 0.25 0.23 0.20 0.20 0.19 0.16 0.13 0.16 0.17 0.16 0.19 0.20 0.20 0.15 0.17 0.18 0.21 0.20 0.24 0.27 0.28 0.28 0.29 0.28 0.29 0.29 0.28 0.34 0.37 0.37 0.38 0.36 0.35 0.42 0.55 0.60 0.65 0.77 0.80 0.96 1.07 1.11 1.02
0.57 0.58 0.57 0.56 0.55 0.55 0.55 0.54 0.53 0.52 0.53 0.54 0.55 0.56 0.57 0.57 0.58 0.58 0.57 0.58 0.57 0.56 0.57 0.57 0.57 0.54 0.54 0.51 0.44 0.36 0.24 0.09 0.44 0.47 0.54 0.51 0.52 0.50 0.49 0.47 0.47 0.41 0.36 0.29 0.26 0.24 0.20 0.19 0.18 0.16 0.15 0.15 0.15 0.14 0.19 0.19 0.22 0.13 0.16 0.18 0.20 0.21 0.19 0.24 0.26 0.28 0.29 0.28 0.27 0.26 0.29 0.30 0.30 0.31 0.34 0.35 0.35 0.38 0.46 0.53 0.62 0.70 0.73 0.76 0.85 0.97 1.00 1.02
0.57 0.57 0.57 0.56 0.55 0.55 0.55 0.54 0.54 0.52 0.52 0.54 0.55 0.56 0.56 0.57 0.57 0.58 0.58 0.57 0.57 0.56 0.56 0.57 0.58 0.58 0.56 0.53 0.42 0.32 0.23 0.21 0.28 0.33 0.40 0.49 0.47 0.44 0.43 0.41 0.41 0.35 0.32 0.26 0.24 0.22 0.21 0.19 0.17 0.15 0.15 0.14 0.15 0.16 0.19 0.20 0.21 0.17 0.14 0.18 0.18 0.22 0.21 0.24 0.23 0.27 0.27 0.27 0.27 0.28 0.29 0.27 0.26 0.24 0.31 0.32 0.35 0.39 0.44 0.56 0.63 0.70 0.71 0.79 0.83 0.92 0.98 1.02
0.55 0.56 0.56 0.56 0.55 0.55 0.54 0.54 0.54 0.53 0.53 0.54 0.56 0.56 0.57 0.58 0.58 0.58 0.58 0.58 0.57 0.56 0.57 0.57 0.59 0.58 0.58 0.46 0.30 0.24 0.22 0.19 0.34 0.46 0.50 0.52 0.42 0.40 0.38 0.37 0.36 0.33 0.27 0.23 0.22 0.21 0.20 0.18 0.17 0.18 0.15 0.13 0.15 0.15 0.18 0.17 0.20 0.18 0.17 0.19 0.19 0.20 0.22 0.23 0.23 0.22 0.25 0.26 0.28 0.28 0.26 0.25 0.27 0.25 0.27 0.28 0.32 0.37 0.41 0.48 0.64 0.69 0.71 0.75 0.79 0.91 1.00 1.06
0.53 0.54 0.55 0.54 0.54 0.54 0.54 0.54 0.54 0.53 0.54 0.55 0.56 0.57 0.57 0.58 0.59 0.59 0.59 0.59 0.58 0.58 0.58 0.59 0.58 0.59 0.59 0.46 0.31 0.21 0.20 0.33 0.47 0.50 0.50 0.42 0.36 0.36 0.36 0.29 0.33 0.28 0.25 0.23 0.22 0.21 0.18 0.16 0.17 0.18 0.13 0.14 0.17 0.15 0.16 0.14 0.12 0.18 0.19 0.21 0.20 0.19 0.20 0.20 0.21 0.21 0.21 0.23 0.26 0.24 0.24 0.27 0.29 0.29 0.23 0.23 0.27 0.33 0.39 0.44 0.51 0.68 0.73 0.71 0.73 0.79 0.92 0.99
0.52 0.52 0.53 0.54 0.54 0.53 0.53 0.53 0.53 0.53 0.54 0.55 0.56 0.57 0.58 0.58 0.59 0.59 0.59 0.59 0.59 0.59 0.59 0.59 0.59 0.59 0.51 0.39 0.32 0.18 0.27 0.39 0.48 0.45 0.41 0.38 0.35 0.33 0.32 0.32 0.31 0.28 0.24 0.23 0.22 0.20 0.17 0.16 0.16 0.19 0.17 0.15 0.17 0.14 0.17 0.15 0.13 0.18 0.18 0.20 0.20 0.21 0.20 0.20 0.18 0.19 0.21 0.20 0.21 0.22 0.22 0.24 0.28 0.27 0.19 0.21 0.25 0.30 0.34 0.40 0.49 0.61 0.67 0.73 0.78 0.79 0.81 0.85
0.53 0.53 0.53 0.53 0.53 0.52 0.51 0.52 0.52 0.52 0.53 0.54 0.56 0.56 0.56 0.57 0.58 0.59 0.59 0.59 0.60 0.60 0.59 0.60 0.60 0.59 0.43 0.42 0.26 0.19 0.37 0.40 0.44 0.42 0.41 0.39 0.35 0.31 0.29 0.30 0.32 0.27 0.25 0.23 0.22 0.23 0.21 0.19 0.19 0.18 0.16 0.13 0.14 0.13 0.14 0.15 0.18 0.17 0.17 0.17 0.17 0.19 0.21 0.21 0.21 0.20 0.20 0.17 0.20 0.19 0.21 0.24 0.26 0.25 0.18 0.18 0.24 0.28 0.31 0.35 0.42 0.56 0.64 0.71 0.77 0.80 0.82 0.81
0.53 0.52 0.53 0.53 0.52 0.51 0.51 0.52 0.52 0.52 0.53 0.55 0.55 0.56 0.56 0.57 0.58 0.59 0.59 0.60 0.60 0.61 0.60 0.58 0.59 0.55 0.48 0.37 0.29 0.27 0.39 0.40 0.44 0.43 0.43 0.40 0.34 0.33 0.33 0.34 0.34 0.30 0.27 0.22 0.23 0.25 0.23 0.21 0.19 0.16 0.11 0.17 0.10 0.13 0.12 0.17 0.15 0.15 0.16 0.12 0.13 0.15 0.14 0.17 0.17 0.18 0.19 0.18 0.20 0.21 0.18 0.17 0.20 0.19 0.18 0.21 0.24 0.26 0.27 0.30 0.36 0.47 0.56 0.65 0.72 0.79 0.87 0.88
0.54 0.53 0.53 0.53 0.53 0.52 0.52 0.53 0.52 0.52 0.53 0.54 0.54 0.55 0.57 0.58 0.57 0.57 0.59 0.59 0.61 0.61 0.59 0.60 0.62 0.57 0.43 0.25 0.32 0.43 0.47 0.46 0.45 0.45 0.44 0.44 0.40 0.39 0.37 0.36 0.35 0.34 0.32 0.26 0.23 0.25 0.25 0.23 0.21 0.15 0.17 0.15 0.13 0.10 0.14 0.16 0.15 0.15 0.14 0.14 0.11 0.11 0.10 0.13 0.15 0.16 0.16 0.18 0.21 0.22 0.12 0.11 0.13 0.17 0.19 0.24 0.25 0.24 0.25 0.27 0.32 0.40 0.53 0.58 0.59 0.67 0.81 0.93
0.57 0.56 0.55 0.54 0.53 0.53 0.53 0.52 0.52 0.52 0.53 0.54 0.54 0.56 0.57 0.57 0.56 0.57 0.59 0.59 0.61 0.59 0.57 0.63 0.61 0.53 0.40 0.28 0.39 0.46 0.49 0.50 0.52 0.47 0.44 0.45 0.39 0.36 0.38 0.37 0.38 0.37 0.36 0.29 0.27 0.28 0.26 0.26 0.23 0.20 0.20 0.16 0.13 0.19 0.14 0.13 0.15 0.11 0.13 0.13 0.09 0.08 0.08 0.14 0.14 0.16 0.13 0.18 0.19 0.20 0.13 0.13 0.14 0.14 0.17 0.24 0.26 0.24 0.22 0.24 0.28 0.35 0.47 0.56 0.62 0.64 0.69 0.80
0.58 0.58 0.57 0.55 0.53 0.53 0.53 0.52 0.52 0.53 0.53 0.54 0.54 0.56 0.57 0.56 0.56 0.58 0.60 0.60 0.58 0.60 0.64 0.65 0.61 0.46 0.33 0.33 0.47 0.50 0.55 0.59 0.46 0.43 0.49 0.42 0.40 0.35 0.35 0.37 0.36 0.36 0.35 0.32 0.28 0.29 0.28 0.26 0.22 0.17 0.15 0.19 0.18 0.14 0.12 0.11 0.12 0.12 0.08 0.06 0.10 0.08 0.09 0.12 0.14 0.16 0.12 0.17 0.19 0.17 0.13 0.12 0.15 0.15 0.17 0.21 0.24 0.24 0.23 0.22 0.24 0.32 0.40 0.52 0.60 0.64 0.69 0.75
0.58 0.58 0.58 0.56 0.53 0.52 0.53 0.52 0.53 0.53 0.54 0.56 0.55 0.55 0.57 0.57 0.56 0.57 0.59 0.59 0.62 0.63 0.64 0.52 0.51 0.46 0.35 0.27 0.36 0.54 0.49 0.39 0.38 0.46 0.50 0.47 0.43 0.36 0.39 0.36 0.36 0.34 0.31 0.28 0.30 0.29 0.28 0.26 0.20 0.19 0.18 0.18 0.15 0.13 0.11 0.10 0.09 0.12 0.09 0.07 0.07 0.09 0.09 0.09 0.14 0.16 0.17 0.17 0.17 0.16 0.10 0.11 0.14 0.17 0.19 0.20 0.20 0.23 0.22 0.22 0.22 0.27 0.37 0.45 0.56 0.62 0.65 0.68
0.58 0.58 0.58 0.58 0.55 0.52 0.52 0.51 0.53 0.55 0.56 0.56 0.55 0.55 0.56 0.57 0.57 0.58 0.61 0.63 0.62 0.64 0.57 0.44 0.51 0.49 0.25 0.40 0.52 0.40 0.36 0.41 0.48 0.46 0.47 0.50 0.46 0.43 0.39 0.36 0.32 0.31 0.31 0.30 0.29 0.27 0.26 0.22 0.23 0.21 0.21 0.17 0.17 0.15 0.10 0.09 0.08 0.09 0.12 0.09 0.10 0.08 0.09 0.08 0.12 0.15 0.16 0.18 0.15 0.17 0.12 0.10 0.13 0.17 0.20 0.21 0.20 0.18 0.21 0.21 0.21 0.23 0.33 0.43 0.50 0.60 0.64 0.67
0.58 0.59 0.59 0.59 0.57 0.53 0.51 0.52 0.55 0.57 0.58 0.56 0.54 0.54 0.52 0.55 0.57 0.60 0.59 0.61 0.63 0.61 0.57 0.59 0.52 0.43 0.35 0.43 0.31 0.36 0.45 0.44 0.44 0.45 0.45 0.46 0.47 0.44 0.41 0.36 0.34 0.33 0.31 0.28 0.27 0.23 0.24 0.20 0.22 0.17 0.19 0.18 0.17 0.14 0.10 0.07 0.08 0.09 0.09 0.08 0.09 0.10 0.11 0.09 0.09 0.13 0.16 0.18 0.15 0.14 0.14 0.11 0.14 0.16 0.17 0.20 0.24 0.21 0.19 0.21 0.22 0.22 0.28 0.39 0.47 0.53 0.60 0.65
0.59 0.60 0.60 0.60 0.58 0.54 0.53 0.55 0.58 0.60 0.58 0.57 0.56 0.57 0.56 0.55 0.55 0.55 0.48 0.50 0.42 0.35 0.29 0.32 0.36 0.24 0.23 0.34 0.45 0.48 0.48 0.50 0.51 0.48 0.43 0.45 0.48 0.48 0.45 0.44 0.40 0.34 0.29 0.27 0.27 0.24 0.24 0.21 0.21 0.18 0.14 0.16 0.16 0.16 0.13 0.12 0.13 0.12 0.12 0.11 0.12 0.10 0.10 0.10 0.13 0.16 0.17 0.15 0.14 0.13 0.11 0.11 0.14 0.15 0.17 0.19 0.22 0.23 0.20 0.20 0.21 0.22 0.24 0.35 0.45 0.49 0.54 0.60
0.60 0.61 0.61 0.60 0.58 0.56 0.57 0.60 0.62 0.62 0.61 0.54 0.50 0.47 0.45 0.32 0.32 0.32 0.45 0.46 0.38 0.36 0.37 0.38 0.44 0.43 0.44 0.44 0.42 0.51 0.59 0.58 0.45 0.46 0.47 0.50 0.47 0.44 0.42 0.41 0.36 0.35 0.31 0.27 0.28 0.28 0.27 0.20 0.17 0.15 0.17 0.19 0.19 0.20 0.19 0.19 0.18 0.16 0.16 0.14 0.12 0.12 0.11 0.13 0.14 0.15 0.18 0.15 0.13 0.12 0.11 0.10 0.13 0.14 0.16 0.19 0.21 0.22 0.22 0.20 0.19 0.21 0.23 0.30 0.42 0.49 0.51 0.56
0.61 0.63 0.61 0.60 0.60 0.60 0.62 0.63 0.64 0.64 0.63 0.58 0.52 0.42 0.29 0.32 0.24 0.23 0.35 0.39 0.44 0.45 0.41 0.42 0.44 0.42 0.41 0.45 0.49 0.49 0.42 0.43 0.49 0.46 0.46 0.55 0.47 0.41 0.36 0.36 0.33 0.29 0.31 0.31 0.29 0.32 0.29 0.22 0.20 0.22 0.23 0.23 0.23 0.23 0.22 0.21 0.20 0.18 0.16 0.15 0.13 0.14 0.11 0.13 0.14 0.16 0.17 0.14 0.12 0.13 0.12 0.11 0.11 0.13 0.15 0.18 0.19 0.20 0.21 0.21 0.19 0.19 0.21 0.27 0.35 0.45 0.51 0.53
0.62 0.64 0.63 0.63 0.64 0.64 0.64 0.66 0.66 0.65 0.65 0.60 0.52 0.42 0.45 0.46 0.50 0.52 0.46 0.30 0.39 0.44 0.45 0.45 0.48 0.43 0.50 0.50 0.53 0.54 0.50 0.39 0.39 0.44 0.50 0.48 0.41 0.34 0.34 0.32 0.29 0.26 0.30 0.30 0.30 0.27 0.25 0.22 0.24 0.27 0.27 0.26 0.24 0.23 0.22 0.21 0.19 0.19 0.16 0.15 0.14 0.13 0.14 0.15 0.16 0.17 0.16 0.14 0.11 0.11 0.10 0.09 0.09 0.10 0.13 0.15 0.18 0.18 0.22 0.23 0.22 0.19 0.19 0.24 0.32 0.41 0.49 0.55
0.62 0.65 0.65 0.66 0.67 0.67 0.66 0.68 0.67 0.66 0.60 0.53 0.46 0.48 0.46 0.59 0.64 0.63 0.56 0.42 0.36 0.45 0.43 0.43 0.39 0.41 0.42 0.50 0.51 0.54 0.39 0.35 0.31 0.40 0.43 0.43 0.35 0.33 0.32 0.28 0.26 0.27 0.27 0.28 0.24 0.23 0.20 0.21 0.27 0.30 0.29 0.27 0.25 0.24 0.23 0.21 0.20 0.18 0.17 0.15 0.13 0.14 0.13 0.11 0.16 0.17 0.17 0.16 0.13 0.12 0.11 0.10 0.11 0.11 0.10 0.13 0.16 0.17 0.19 0.23 0.23 0.22 0.19 0.20 0.27 0.35 0.44 0.53
0.62 0.65 0.67 0.68 0.68 0.68 0.68 0.68 0.68 0.62 0.57 0.55 0.52 0.50 0.62 0.67 0.66 0.60 0.48 0.33 0.31 0.38 0.43 0.44 0.43 0.42 0.40 0.41 0.50 0.48 0.41 0.37 0.37 0.33 0.44 0.40 0.32 0.34 0.30 0.29 0.26 0.25 0.23 0.25 0.24 0.22 0.20 0.24 0.29 0.29 0.28 0.26 0.24 0.25 0.23 0.21 0.19 0.20 0.18 0.16 0.15 0.14 0.15 0.15 0.14 0.17 0.18 0.17 0.16 0.13 0.12 0.10 0.10 0.09 0.10 0.11 0.14 0.16 0.17 0.21 0.24 0.24 0.23 0.21 0.24 0.34 0.41 0.46
0.62 0.65 0.67 0.69 0.69 0.69 0.67 0.69 0.56 0.55 0.60 0.59 0.53 0.62 0.67 0.67 0.67 0.61 0.43 0.35 0.35 0.34 0.50 0.46 0.46 0.44 0.44 0.57 0.55 0.43 0.40 0.35 0.36 0.37 0.42 0.40 0.36 0.33 0.31 0.33 0.29 0.24 0.26 0.28 0.27 0.24 0.21 0.24 0.30 0.28 0.27 0.26 0.24 0.23 0.23 0.22 0.19 0.19 0.20 0.18 0.17 0.17 0.17 0.17 0.17 0.16 0.15 0.13 0.13 0.12 0.09 0.07 0.08 0.09 0.09 0.09 0.11 0.13 0.16 0.18 0.21 0.22 0.22 0.21 0.21 0.27 0.38 0.47
0.61 0.64 0.67 0.71 0.71 0.69 0.69 0.54 0.53 0.60 0.55 0.50 0.56 0.65 0.68 0.68 0.68 0.63 0.43 0.26 0.21 0.31 0.41 0.30 0.47 0.36 0.53 0.42 0.47 0.40 0.37 0.24 0.33 0.40 0.44 0.48 0.51 0.40 0.38 0.34 0.33 0.24 0.28 0.28 0.27 0.26 0.23 0.28 0.28 0.26 0.26 0.26 0.25 0.23 0.23 0.24 0.19 0.18 0.17 0.20 0.19 0.18 0.18 0.17 0.16 0.17 0.13 0.10 0.11 0.13 0.09 0.07 0.10 0.10 0.11 0.11 0.10 0.11 0.13 0.16 0.18 0.22 0.22 0.22 0.21 0.23 0.34 0.41
0.60 0.62 0.67 0.71 0.72 0.71 0.54 0.45 0.62 0.61 0.46 0.49 0.65 0.68 0.68 0.68 0.69 0.61 0.37 0.20 0.18 0.31 0.30 0.37 0.38 0.38 0.50 0.43 0.43 0.37 0.12 0.18 0.38 0.45 0.44 0.50 0.40 0.50 0.33 0.30 0.35 0.34 0.32 0.31 0.25 0.20 0.28 0.28 0.28 0.27 0.25 0.24 0.24 0.21 0.23 0.24 0.20 0.16 0.18 0.20 0.19 0.18 0.17 0.17 0.17 0.16 0.14 0.16 0.15 0.16 0.14 0.10 0.08 0.10 0.12 0.12 0.13 0.12 0.13 0.15 0.15 0.19 0.22 0.22 0.21 0.22 0.28 0.38
0.60 0.60 0.65 0.72 0.73 0.71 0.59 0.61 0.58 0.51 0.51 0.61 0.69 0.69 0.69 0.68 0.66 0.59 0.30 0.13 0.13 0.38 0.28 0.37 0.38 0.52 0.45 0.43 0.44 0.28 0.26 0.34 0.23 0.38 0.46 0.49 0.49 0.42 0.35 0.30 0.29 0.30 0.33 0.29 0.16 0.24 0.24 0.24 0.26 0.26 0.25 0.24 0.21 0.23 0.25 0.24 0.20 0.17 0.20 0.20 0.18 0.17 0.17 0.17 0.16 0.15 0.15 0.15 0.12 0.13 0.14 0.11 0.08 0.10 0.12 0.13 0.11 0.10 0.12 0.14 0.14 0.16 0.19 0.21 0.22 0.22 0.24 0.34
0.61 0.59 0.62 0.71 0.73 0.73 0.71 0.62 0.58 0.52 0.63 0.68 0.69 0.69 0.68 0.67 0.57 0.35 0.21 0.13 0.27 0.34 0.50 0.34 0.54 0.45 0.41 0.40 0.33 0.32 0.30 0.35 0.23 0.34 0.45 0.49 0.51 0.42 0.29 0.34 0.34 0.32 0.35 0.32 0.22 0.26 0.29 0.28 0.28 0.29 0.26 0.22 0.25 0.26 0.25 0.23 0.18 0.20 0.21 0.21 0.19 0.18 0.18 0.18 0.16 0.16 0.15 0.15 0.11 0.11 0.12 0.10 0.08 0.11 0.12 0.13 0.11 0.09 0.10 0.14 0.15 0.15 0.18 0.20 0.21 0.22 0.25 0.31
0.62 0.60 0.60 0.70 0.72 0.68 0.66 0.68 0.60 0.66 0.70 0.71 0.69 0.68 0.68 0.55 0.41 0.21 0.13 0.11 0.32 0.24 0.36 0.37 0.39 0.32 0.37 0.26 0.26 0.30 0.26 0.29 0.33 0.36 0.40 0.34 0.40 0.45 0.40 0.46 0.35 0.31 0.28 0.33 0.30 0.29 0.32 0.38 0.38 0.32 0.28 0.30 0.30 0.29 0.27 0.25 0.23 0.24 0.23 0.20 0.19 0.18 0.17 0.18 0.17 0.16 0.14 0.12 0.12 0.12 0.12 0.11 0.08 0.10 0.11 0.11 0.11 0.09 0.09 0.13 0.16 0.16 0.18 0.20 0.22 0.22 0.24 0.30
0.63 0.62 0.63 0.71 0.63 0.64 0.64 0.53 0.60 0.71 0.71 0.70 0.69 0.62 0.52 0.39 0.21 0.15 0.11 0.19 0.35 0.32 0.38 0.35 0.31 0.38 0.27 0.25 0.20 0.28 0.28 0.28 0.27 0.32 0.27 0.35 0.32 0.36 0.35 0.31 0.40 0.30 0.28 0.27 0.25 0.27 0.28 0.31 0.32 0.32 0.36 0.34 0.33 0.29 0.30 0.29 0.27 0.24 0.20 0.18 0.18 0.16 0.17 0.15 0.15 0.16 0.12 0.10 0.11 0.12 0.12 0.12 0.08 0.09 0.12 0.13 0.14 0.13 0.12 0.12 0.15 0.15 0.17 0.20 0.22 0.24 0.25 0.28
0.65 0.67 0.68 0.71 0.71 0.72 0.55 0.51 0.65 0.73 0.71 0.70 0.62 0.47 0.36 0.18 0.24 0.13 0.13 0.37 0.20 0.26 0.28 0.28 0.34 0.30 0.25 0.29 0.26 0.24 0.22 0.25 0.28 0.29 0.25 0.27 0.25 0.25 0.27 0.22 0.28 0.20 0.19 0.21 0.19 0.25 0.21 0.21 0.27 0.31 0.36 0.32 0.29 0.26 0.27 0.28 0.27 0.23 0.20 0.18 0.14 0.12 0.13 0.10 0.12 0.10 0.10 0.09 0.11 0.13 0.13 0.11 0.11 0.11 0.13 0.15 0.16 0.15 0.14 0.14 0.16 0.16 0.17 0.19 0.21 0.23 0.24 0.27
0.69 0.71 0.72 0.75 0.75 0.65 0.66 0.70 0.73 0.72 0.72 0.65 0.50 0.40 0.25 0.16 0.11 0.19 0.21 0.26 0.21 0.32 0.28 0.38 0.30 0.29 0.27 0.24 0.21 0.25 0.29 0.20 0.28 0.29 0.30 0.30 0.27 0.26 0.31 0.30 0.32 0.27 0.18 0.23 0.23 0.22 0.18 0.23 0.22 0.25 0.30 0.32 0.30 0.22 0.21 0.23 0.24 0.23 0.19 0.17 0.14 0.11 0.10 0.09 0.10 0.11 0.11 0.14 0.16 0.14 0.15 0.12 0.12 0.12 0.15 0.14 0.14 0.14 0.14 0.14 0.17 0.17 0.17 0.19 0.21 0.23 0.24 0.26
0.72 0.75 0.71 0.75 0.74 0.70 0.71 0.75 0.74 0.73 0.65 0.57 0.40 0.30 0.23 0.14 0.15 0.30 0.24 0.26 0.26 0.36 0.36 0.33 0.32 0.30 0.27 0.20 0.23 0.29 0.20 0.27 0.28 0.27 0.30 0.26 0.28 0.24 0.26 0.32 0.34 0.30 0.29 0.27 0.23 0.23 0.17 0.15 0.19 0.21 0.20 0.29 0.28 0.25 0.24 0.23 0.24 0.24 0.25 0.20 0.16 0.14 0.11 0.08 0.09 0.08 0.09 0.10 0.14 0.17 0.14 0.12 0.10 0.09 0.13 0.13 0.15 0.16 0.16 0.14 0.17 0.18 0.18 0.20 0.21 0.23 0.25 0.25
0.73 0.75 0.77 0.78 0.75 0.73 0.74 0.74 0.74 0.72 0.62 0.48 0.33 0.25 0.17 0.17 0.23 0.21 0.23 0.25 0.30 0.33 0.30 0.38 0.32 0.28 0.22 0.23 0.28 0.31 0.30 0.22 0.29 0.27 0.26 0.26 0.24 0.27 0.26 0.27 0.33 0.34 0.32 0.23 0.26 0.26 0.22 0.21 0.25 0.27 0.26 0.26 0.22 0.26 0.28 0.26 0.24 0.25 0.25 0.22 0.17 0.13 0.15 0.11 0.12 0.12 0.12 0.12 0.12 0.12 0.13 0.16 0.13 0.14 0.14 0.15 0.15 0.16 0.15 0.15 0.18 0.19 0.19 0.21 0.22 0.23 0.24 0.25
0.74 0.73 0.79 0.72 0.68 0.69 0.76 0.75 0.73 0.68 0.56 0.40 0.28 0.23 0.21 0.24 0.21 0.28 0.25 0.34 0.32 0.27 0.29 0.35 0.35 0.26 0.25 0.22 0.26 0.25 0.35 0.25 0.28 0.27 0.25 0.26 0.28 0.27 0.32 0.32 0.32 0.36 0.30 0.24 0.27 0.22 0.25 0.21 0.29 0.30 0.30 0.27 0.26 0.27 0.26 0.26 0.16 0.22 0.24 0.18 0.15 0.19 0.18 0.16 0.15 0.17 0.16 0.13 0.10 0.13 0.13 0.14 0.18 0.16 0.17 0.21 0.19 0.13 0.12 0.12 0.17 0.19 0.19 0.22 0.23 0.26 0.28 0.28
0.68 0.76 0.67 0.71 0.66 0.74 0.76 0.75 0.70 0.63 0.53 0.37 0.27 0.22 0.28 0.31 0.34 0.33 0.35 0.30 0.29 0.30 0.31 0.25 0.27 0.27 0.23 0.22 0.24 0.25 0.27 0.30 0.29 0.29 0.22 0.28 0.23 0.29 0.31 0.34 0.39 0.38 0.39 0.34 0.28 0.33 0.23 0.21 0.30 0.30 0.25 0.30 0.31 0.30 0.28 0.27 0.26 0.21 0.17 0.19 0.23 0.26 0.23 0.17 0.12 0.14 0.13 0.10 0.10 0.15 0.13 0.14 0.15 0.12 0.17 0.22 0.20 0.16 0.12 0.12 0.17 0.19 0.21 0.26 0.31 0.36 0.38 0.34
0.67 0.72 0.71 0.66 0.68 0.77 0.77 0.72 0.66 0.59 0.47 0.35 0.27 0.30 0.36 0.29 0.39 0.36 0.39 0.34 0.29 0.31 0.30 0.29 0.30 0.36 0.27 0.26 0.22 0.26 0.29 0.25 0.28 0.32 0.26 0.31 0.23 0.33 0.32 0.34 0.41 0.40 0.42 0.43 0.33 0.32 0.33 0.22 0.27 0.32 0.30 0.31 0.32 0.30 0.26 0.29 0.29 0.23 0.20 0.30 0.17 0.16 0.13 0.18 0.14 0.09 0.09 0.10 0.11 0.13 0.16 0.16 0.18 0.15 0.20 0.20 0.17 0.16 0.15 0.20 0.22 0.25 0.31 0.37 0.40 0.42 0.44 0.41
0.68 0.69 0.58 0.67 0.76 0.79 0.75 0.71 0.62 0.52 0.40 0.31 0.29 0.27 0.34 0.36 0.41 0.38 0.39 0.36 0.32 0.30 0.28 0.32 0.29 0.34 0.34 0.28 0.28 0.28 0.28 0.22 0.30 0.30 0.27 0.29 0.24 0.31 0.32 0.38 0.38 0.45 0.45 0.44 0.37 0.36 0.37 0.25 0.25 0.33 0.32 0.34 0.32 0.28 0.19 0.22 0.27 0.28 0.28 0.23 0.25 0.20 0.16 0.16 0.14 0.16 0.14 0.11 0.13 0.13 0.17 0.14 0.18 0.16 0.23 0.28 0.28 0.26 0.25 0.28 0.32 0.36 0.41 0.45 0.45 0.44 0.44 0.44
0.62 0.61 0.54 0.75 0.78 0.80 0.77 0.69 0.54 0.46 0.38 0.29 0.31 0.31 0.38 0.34 0.37 0.40 0.39 0.34 0.27 0.29 0.30 0.31 0.36 0.32 0.36 0.33 0.33 0.26 0.28 0.27 0.28 0.29 0.30 0.31 0.29 0.36 0.32 0.42 0.41 0.44 0.45 0.45 0.39 0.43 0.33 0.36 0.22 0.29 0.36 0.36 0.26 0.27 0.22 0.22 0.20 0.21 0.21 0.19 0.22 0.20 0.24 0.21 0.21 0.16 0.14 0.13 0.13 0.15 0.15 0.15 0.17 0.25 0.29 0.31 0.32 0.31 0.30 0.31 0.36 0.40 0.42 0.44 0.45 0.46 0.48 0.50
0.68 0.60 0.58 0.78 0.79 0.81 0.74 0.58 0.43 0.39 0.37 0.39 0.39 0.35 0.38 0.33 0.37 0.37 0.35 0.36 0.33 0.42 0.34 0.33 0.34 0.32 0.34 0.34 0.31 0.34 0.28 0.27 0.27 0.25 0.28 0.29 0.32 0.26 0.37 0.40 0.46 0.41 0.42 0.41 0.39 0.40 0.34 0.34 0.25 0.27 0.28 0.28 0.28 0.32 0.29 0.26 0.24 0.21 0.20 0.18 0.19 0.17 0.17 0.14 0.13 0.21 0.18 0.16 0.15 0.16 0.13 0.18 0.30 0.37 0.34 0.35 0.37 0.34 0.33 0.33 0.36 0.39 0.41 0.42 0.45 0.49 0.51 0.51
0.58 0.48 0.54 0.79 0.81 0.78 0.61 0.41 0.42 0.46 0.40 0.35 0.32 0.37 0.34 0.42 0.36 0.34 0.31 0.35 0.36 0.32 0.42 0.37 0.39 0.37 0.37 0.36 0.36 0.35 0.32 0.27 0.28 0.28 0.30 0.27 0.35 0.34 0.38 0.47 0.47 0.47 0.40 0.33 0.35 0.43 0.40 0.38 0.32 0.26 0.27 0.29 0.31 0.34 0.35 0.32 0.29 0.27 0.24 0.21 0.21 0.20 0.19 0.15 0.11 0.13 0.17 0.19 0.22 0.21 0.19 0.17 0.33 0.37 0.36 0.37 0.38 0.38 0.36 0.35 0.35 0.37 0.41 0.44 0.44 0.46 0.50 0.53
0.56 0.51 0.71 0.79 0.82 0.73 0.51 0.42 0.44 0.41 0.38 0.40 0.45 0.43 0.43 0.39 0.35 0.35 0.30 0.33 0.29 0.34 0.32 0.33 0.34 0.34 0.37 0.37 0.37 0.36 0.36 0.30 0.31 0.28 0.30 0.32 0.33 0.39 0.42 0.46 0.47 0.46 0.45 0.40 0.43 0.45 0.46 0.34 0.29 0.29 0.33 0.35 0.34 0.35 0.36 0.33 0.30 0.25 0.23 0.24 0.23 0.18 0.18 0.16 0.15 0.17 0.17 0.20 0.20 0.21 0.18 0.18 0.30 0.42 0.42 0.37 0.35 0.37 0.37 0.37 0.36 0.38 0.41 0.43 0.43 0.44 0.46 0.53
0.60 0.59 0.63 0.75 0.80 0.72 0.44 0.36 0.36 0.37 0.39 0.42 0.42 0.39 0.42 0.37 0.35 0.30 0.29 0.32 0.29 0.28 0.28 0.30 0.34 0.39 0.33 0.40 0.38 0.33 0.38 0.27 0.34 0.32 0.30 0.36 0.31 0.42 0.44 0.45 0.49 0.42 0.43 0.41 0.38 0.49 0.34 0.36 0.32 0.26 0.24 0.26 0.26 0.27 0.28 0.31 0.28 0.22 0.19 0.20 0.21 0.23 0.22 0.21 0.20 0.22 0.16 0.17 0.18 0.16 0.13 0.14 0.25 0.33 0.35 0.37 0.34 0.34 0.35 0.38 0.40 0.37 0.39 0.43 0.44 0.45 0.47 0.52
0.62 0.66 0.64 0.63 0.70 0.61 0.43 0.45 0.40 0.37 0.37 0.37 0.38 0.36 0.34 0.35 0.36 0.34 0.33 0.31 0.35 0.31 0.28 0.26 0.33 0.35 0.33 0.37 0.33 0.35 0.38 0.34 0.29 0.34 0.35 0.35 0.34 0.42 0.44 0.45 0.47 0.43 0.48 0.51 0.50 0.53 0.39 0.36 0.32 0.23 0.20 0.17 0.16 0.14 0.15 0.17 0.19 0.22 0.21 0.19 0.20 0.19 0.19 0.19 0.15 0.16 0.14 0.16 0.17 0.16 0.14 0.17 0.23 0.27 0.30 0.32 0.37 0.37 0.36 0.37 0.37 0.39 0.40 0.41 0.44 0.45 0.47 0.51
0.55 0.45 0.52 0.54 0.56 0.60 0.53 0.55 0.45 0.39 0.37 0.37 0.36 0.36 0.36 0.31 0.34 0.36 0.36 0.33 0.34 0.32 0.31 0.29 0.35 0.33 0.30 0.29 0.25 0.27 0.29 0.36 0.33 0.30 0.33 0.32 0.34 0.36 0.40 0.43 0.43 0.43 0.46 0.52 0.56 0.51 0.39 0.40 0.37 0.33 0.28 0.25 0.28 0.27 0.29 0.28 0.26 0.18 0.17 0.18 0.17 0.18 0.19 0.19 0.18 0.15 0.13 0.14 0.15 0.17 0.17 0.16 0.18 0.23 0.25 0.30 0.36 0.34 0.33 0.33 0.33 0.35 0.38 0.43 0.45 0.45 0.48 0.52
0.61 0.48 0.48 0.45 0.50 0.49 0.46 0.48 0.44 0.43 0.37 0.42 0.34 0.36 0.32 0.32 0.33 0.32 0.38 0.29 0.33 0.31 0.29 0.29 0.29 0.24 0.24 0.25 0.23 0.23 0.28 0.30 0.35 0.34 0.33 0.33 0.35 0.36 0.40 0.42 0.41 0.43 0.47 0.51 0.56 0.50 0.41 0.35 0.36 0.37 0.36 0.36 0.38 0.32 0.31 0.29 0.22 0.22 0.20 0.18 0.18 0.17 0.18 0.17 0.14 0.12 0.16 0.15 0.13 0.17 0.19 0.17 0.18 0.22 0.26 0.30 0.33 0.34 0.34 0.34 0.35 0.36 0.38 0.42 0.43 0.45 0.50 0.53
0.48 0.53 0.56 0.56 0.46 0.41 0.43 0.43 0.46 0.43 0.44 0.44 0.37 0.38 0.32 0.31 0.31 0.27 0.33 0.36 0.35 0.36 0.25 0.26 0.27 0.28 0.27 0.26 0.27 0.22 0.24 0.26 0.27 0.27 0.33 0.35 0.33 0.35 0.31 0.40 0.41 0.47 0.53 0.53 0.57 0.48 0.40 0.33 0.36 0.38 0.36 0.39 0.41 0.40 0.38 0.30 0.25 0.22 0.22 0.21 0.20 0.19 0.17 0.15 0.14 0.15 0.16 0.14 0.12 0.15 0.18 0.17 0.17 0.20 0.26 0.30 0.33 0.35 0.35 0.35 0.36 0.40 0.43 0.45 0.45 0.46 0.46 0.48
0.61 0.58 0.57 0.60 0.46 0.48 0.47 0.46 0.47 0.43 0.41 0.41 0.37 0.36 0.31 0.31 0.30 0.33 0.33 0.31 0.31 0.30 0.31 0.21 0.23 0.26 0.27 0.29 0.28 0.24 0.25 0.20 0.20 0.27 0.31 0.31 0.32 0.34 0.31 0.35 0.45 0.53 0.54 0.53 0.53 0.53 0.45 0.36 0.39 0.39 0.36 0.38 0.40 0.42 0.42 0.36 0.26 0.24 0.24 0.26 0.25 0.21 0.17 0.15 0.14 0.15 0.16 0.15 0.16 0.17 0.17 0.16 0.18 0.22 0.26 0.33 0.37 0.37 0.36 0.36 0.38 0.42 0.45 0.47 0.47 0.46 0.45 0.46
0.55 0.54 0.50 0.58 0.54 0.51 0.50 0.48 0.45 0.42 0.38 0.40 0.32 0.35 0.34 0.33 0.31 0.33 0.35 0.32 0.25 0.27 0.32 0.25 0.25 0.28 0.28 0.28 0.27 0.24 0.25 0.27 0.26 0.24 0.31 0.33 0.33 0.36 0.34 0.37 0.39 0.50 0.53 0.48 0.51 0.54 0.45 0.35 0.42 0.41 0.35 0.34 0.39 0.42 0.43 0.41 0.30 0.23 0.26 0.29 0.28 0.26 0.23 0.20 0.17 0.16 0.17 0.17 0.17 0.18 0.18 0.18 0.21 0.28 0.31 0.34 0.37 0.39 0.39 0.37 0.38 0.42 0.46 0.48 0.46 0.45 0.45 0.47
0.69 0.70 0.65 0.53 0.46 0.49 0.50 0.47 0.44 0.41 0.38 0.38 0.34 0.36 0.36 0.35 0.33 0.36 0.33 0.37 0.32 0.28 0.30 0.27 0.29 0.29 0.29 0.28 0.26 0.24 0.28 0.29 0.30 0.32 0.33 0.36 0.32 0.40 0.38 0.38 0.47 0.42 0.46 0.46 0.49 0.50 0.49 0.39 0.45 0.41 0.33 0.31 0.37 0.39 0.39 0.38 0.32 0.25 0.24 0.27 0.27 0.25 0.21 0.19 0.15 0.15 0.15 0.14 0.15 0.17 0.18 0.18 0.23 0.30 0.33 0.36 0.38 0.39 0.39 0.39 0.41 0.44 0.49 0.49 0.46 0.46 0.48 0.54
0.75 0.75 0.72 0.59 0.46 0.51 0.45 0.47 0.45 0.42 0.35 0.39 0.39 0.38 0.36 0.36 0.38 0.38 0.29 0.36 0.36 0.36 0.36 0.34 0.33 0.30 0.27 0.26 0.23 0.25 0.29 0.31 0.32 0.35 0.34 0.40 0.47 0.48 0.49 0.48 0.48 0.45 0.43 0.45 0.50 0.46 0.47 0.43 0.39 0.38 0.31 0.30 0.37 0.40 0.38 0.34 0.29 0.21 0.20 0.27 0.30 0.30 0.29 0.28 0.24 0.22 0.19 0.19 0.18 0.17 0.18 0.23 0.30 0.35 0.35 0.37 0.38 0.40 0.41 0.40 0.42 0.48 0.51 0.50 0.49 0.51 0.53 0.56
Wind_Speed
23 23 23 22 22 21 21 20 20 19 19 18 18 18 18 18 18 18 18 19 19 20 20 21 21 22 22 23 24 25 26 26 26 26 26 27 28 28 29 29 29 30 30 29 29 29 29 29 30 30 30 31 32 33 33 34 34 33 34 36 38 37 36 34 32 32 30 29 28 28 28 27 26 26 25 24 26 28 26 25 25 22 21 20 19 19 19 20
23 23 23 23 22 22 22 21 21 20 20 19 19 19 19 19 19 18 19 19 19 20 20 21 21 21 22 22 23 24 24 25 25 25 25 24 25 26 27 27 28 28 28 28 28 28 29 30 30 30 30 31 31 32 32 33 34 34 34 36 39 37 35 34 33 32 31 30 29 30 30 30 29 27 25 25 25 28 28 25 26 25 22 20 20 20 20 21
23 23 23 23 23 23 23 22 22 22 21 20 20 20 20 19 20 20 20 20 19 20 20 20 21 21 22 22 23 23 23 23 22 22 22 22 22 23 24 25 26 26 26 27 28 28 28 29 30 30 29 30 31 31 32 33 34 35 35 37 38 35 34 33 32 33 32 31 30 31 31 31 31 29 26 27 26 29 32 28 26 27 26 22 21 21 21 22
24 24 24 24 24 24 24 24 23 23 22 21 21 21 21 21 21 21 21 21 21 20 20 20 20 21 21 22 23 22 21 21 19 19 20 20 20 21 22 23 24 24 25 26 26 27 28 28 28 29 29 30 31 31 32 33 33 34 35 37 37 34 34 34 32 31 31 30 30 31 31 31 31 30 28 28 28 29 32 31 29 29 29 25 22 21 22 23
24 24 24 24 24 24 24 25 24 24 23 23 22 22 22 22 21 21 21 21 21 21 21 21 21 21 21 22 22 21 19 18 18 18 19 19 20 20 21 22 22 23 24 24 25 25 26 26 26 27 28 29 30 30 32 33 33 34 35 35 35 34 34 35 33 32 31 31 30 30 31 30 29 30 31 31 31 30 30 31 31 31 31 29 27 24 23 25
24 24 24 24 24 25 25 25 25 25 25 24 24 23 23 23 22 22 22 22 22 22 22 22 22 22 22 22 22 20 18 18 18 19 20 19 19 20 20 21 22 22 23 23 24 24 24 25 25 26 27 28 29 30 32 32 33 34 35 34 35 35 35 36 35 33 32 31 31 31 31 30 29 31 33 34 35 33 30 31 32 32 32 31 30 28 27 27
24 24 24 25 25 25 25 25 25 26 26 25 25 25 25 24 24 24 23 23 22 22 22 22 22 22 23 23 21 19 19 20 20 20 21 20 19 20 21 21 22 22 22 22 23 23 24 24 24 25 26 27 29 30 30 31 32 33 34 34 35 35 36 36 35 34 33 32 33 33 32 32 31 31 31 34 36 34 32 32 33 33 33 32 32 32 30 29
25 25 25 25 25 25 25 25 25 26 26 26 26 26 26 26 26 26 25 24 23 23 22 22 22 23 23 22 20 20 20 21 21 20 20 19 20 20 21 22 22 22 21 21 22 22 23 23 24 25 25 26 27 28 29 29 30 32 33 34 34 35 36 36 35 36 35 34 33 33 34 33 32 32 32 36 37 35 32 32 33 32 32 34 35 36 33 31
25 25 25 25 26 26 26 26 26 26 26 26 26 26 26 27 27 27 27 26 25 24 23 23 23 23 23 22 20 20 20 20 20 19 19 20 21 21 21 21 21 21 21 21 21 21 22 23 23 24 25 26 26 26 27 27 29 30 32 33 34 35 36 36 36 36 36 36 33 33 35 34 33 32 34 39 38 36 33 32 32 33 33 35 37 38 37 34
25 25 26 26 26 26 26 27 27 27 27 27 27 27 27 27 28 28 28 27 26 25 24 23 24 23 23 23 21 21 21 20 20 20 20 21 21 21 21 21 21 21 22 22 22 21 22 23 24 23 24 25 25 26 26 27 29 29 31 33 34 35 36 35 36 36 36 37 36 35 35 35 33 33 35 38 37 35 34 33 33 34 35 35 35 37 39 39
26 26 26 26 26 26 27 27 27 28 28 28 27 28 28 29 29 29 28 27 27 26 25 24 24 23 23 23 22 21 21 20 21 21 21 22 22 22 22 22 22 22 22 22 23 23 23 23 24 23 23 24 24 25 26 27 28 29 30 32 33 34 34 35 36 35 35 36 36 36 36 37 35 36 39 37 34 33 34 34 34 35 36 35 35 35 37 39
26 26 27 27 27 27 27 27 28 29 29 29 28 29 29 30 30 29 28 27 27 26 25 24 24 23 23 24 22 21 21 21 22 23 23 23 23 24 24 23 23 22 22 23 24 24 23 23 23 23 24 24 23 24 25 26 27 28 29 31 32 32 33 35 34 34 34 34 35 34 37 40 38 40 43 37 32 33 34 35 35 36 37 37 36 36 36 37
27 27 27 27 27 28 27 28 29 29 30 29 29 29 30 30 30 29 28 28 26 25 24 24 24 23 23 23 22 21 21 21 21 22 22 23 22 23 23 24 24 23 23 24 24 24 24 24 23 24 25 24 24 25 25 25 26 28 28 30 31 30 32 33 32 33 34 34 33 32 37 42 41 43 43 36 33 34 35 36 36 36 37 38 38 37 37 37
27 27 28 28 28 28 28 28 29 30 30 30 30 30 30 31 30 29 29 27 25 24 23 24 24 23 22 22 20 20 20 19 19 19 20 20 20 21 21 23 24 23 23 24 24 24 24 24 23 24 25 25 25 25 25 25 25 26 27 29 29 29 31 29 29 30 31 32 32 32 37 41 41 43 41 35 35 35 36 38 37 37 37 38 39 38 39 38
28 28 28 28 28 28 28 29 30 31 30 30 30 30 31 30 30 29 27 25 25 24 24 24 24 22 21 19 18 17 17 16 16 17 18 19 19 20 20 21 23 23 23 23 23 23 23 23 23 24 24 25 24 24 25 25 26 26 27 28 27 28 29 28 28 29 29 31 31 32 37 41 40 41 40 37 38 37 37 39 39 38 38 39 39 39 39 38
28 28 29 29 29 29 29 29 30 31 31 31 31 31 30 29 29 27 26 25 25 25 23 23 23 20 18 17 15 15 14 14 15 16 17 18 19 20 20 20 21 21 22 23 23 23 23 23 23 23 24 24 24 24 24 25 26 26 27 29 28 28 28 27 28 28 27 28 30 32 36 40 38 38 39 39 40 40 39 40 40 40 39 40 40 40 40 39
29 29 29 30 30 29 29 29 30 31 31 31 31 31 30 28 27 26 25 26 26 24 22 22 21 18 16 15 14 14 14 14 16 16 17 17 18 19 19 19 19 20 21 22 23 23 23 23 23 24 23 23 24 23 23 26 28 26 26 28 28 28 28 28 28 27 26 27 29 32 37 41 37 35 37 38 39 39 40 40 40 41 40 40 40 40 40 40
29 30 30 30 30 30 29 30 30 30 31 31 31 30 28 27 25 24 26 27 25 22 21 22 21 16 15 16 15 15 15 16 16 16 17 17 16 16 17 18 18 19 20 21 22 22 23 23 23 23 23 23 24 23 25 27 26 25 25 27 27 28 29 29 29 28 27 28 30 31 37 41 37 36 37 38 39 39 41 41 40 41 41 41 42 41 41 41
30 30 30 30 30 30 30 30 30 30 31 31 31 29 26 26 24 24 26 25 23 22 21 21 20 16 16 17 16 16 17 16 16 16 15 15 15 15 16 17 18 18 19 19 21 21 22 23 23 24 24 24 25 25 27 27 25 25 26 27 28 29 30 30 29 29 28 29 31 33 38 40 36 37 37 37 38 40 42 43 42 42 42 42 43 43 42 42
31 31 30 30 30 31 30 30 29 30 30 29 29 27 25 26 24 24 26 24 22 22 21 20 18 16 17 17 17 18 18 17 17 16 16 15 15 16 16 17 17 17 18 19 20 21 21 23 24 25 25 25 25 26 27 27 27 27 28 29 30 30 32 31 29 30 28 29 32 33 38 39 37 38 37 36 37 39 41 42 43 43 42 43 44 44 44 43
31 31 30 30 31 31 30 29 29 30 30 28 28 26 24 25 24 24 25 23 21 22 21 20 18 17 18 17 18 19 18 18 18 18 18 17 16 17 17 17 17 18 18 19 20 21 21 24 25 24 24 25 25 26 27 28 28 28 28 29 30 31 32 31 30 31 29 30 33 34 38 40 39 38 38 37 37 39 41 42 43 45 44 43 44 45 45 44
31 31 30 30 31 31 30 29 29 30 29 27 27 25 23 25 24 23 23 21 22 21 20 20 19 18 18 18 19 19 19 19 20 21 20 18 18 18 18 17 17 19 19 18 20 21 23 25 24 23 23 24 25 25 26 28 28 29 29 29 31 30 30 30 29 29 28 30 33 34 37 41 39 39 39 38 38 40 43 43 43 45 45 44 45 46 46 45
31 31 30 31 31 31 30 29 29 29 27 26 26 25 24 25 24 23 21 20 22 21 20 20 19 18 19 19 19 19 21 21 21 22 21 20 20 20 19 19 19 20 19 19 21 22 24 24 22 22 23 24 25 25 26 27 28 29 29 29 31 30 28 30 29 28 28 29 32 34 36 39 39 38 39 39 40 42 43 44 45 45 45 46 46 46 46 46
31 30 30 31 31 31 30 28 29 29 27 25 25 25 25 25 24 23 21 19 20 21 20 20 19 18 20 20 20 21 23 22 21 22 22 21 21 20 20 20 21 21 20 21 22 24 26 24 22 22 23 24 26 26 25 26 27 28 29 30 31 30 29 30 29 28 28 30 32 33 35 39 39 39 38 38 40 42 43 44 45 46 46 46 47 46 46 47
31 30 30 31 31 32 30 27 28 29 26 24 26 26 26 25 24 23 21 18 19 21 20 19 19 19 20 21 21 23 23 21 20 21 20 19 19 19 19 19 19 20 21 21 21 24 27 25 23 24 24 24 25 26 25 25 26 27 28 30 31 30 29 30 29 28 28 30 31 30 32 36 36 35 36 36 38 42 42 43 45 46 47 47 47 47 46 47
31 30 30 31 31 32 29 26 28 29 26 25 26 27 26 25 24 22 20 17 19 20 20 19 19 20 21 21 23 24 20 18 19 18 16 16 16 15 15 16 17 18 18 19 20 22 23 21 21 24 25 25 25 26 25 24 26 28 27 27 29 29 29 29 29 28 28 30 29 27 29 33 33 33 33 33 35 40 41 41 43 45 46 47 47 47 47 47
31 31 30 30 31 31 28 26 28 28 26 26 27 27 26 25 23 21 19 17 19 20 20 19 19 20 21 21 23 21 17 18 19 16 14 17 17 14 13 14 14 16 16 16 18 19 19 19 20 23 24 25 26 25 23 22 25 27 24 24 26 28 28 29 29 28 29 30 30 29 30 33 36 35 34 33 33 38 40 41 42 43 45 47 47 48 48 47
31 31 30 30 30 29 27 27 28 28 27 27 27 27 26 24 22 20 18 17 19 20 19 19 19 20 20 21 21 17 15 18 16 14 16 17 17 15 14 13 12 13 13 14 17 17 17 18 18 20 21 23 23 23 22 22 25 25 23 23 25 26 27 28 28 28 29 29 31 32 30 32 36 35 34 33 34 38 41 42 42 43 44 46 47 48 49 48
31 31 30 30 29 27 26 27 27 27 27 27 27 27 25 23 21 20 17 16 18 19 18 19 19 19 20 20 18 15 15 16 14 15 16 16 16 15 14 14 14 13 12 12 15 16 16 16 16 16 18 19 20 20 20 21 23 23 22 22 23 24 25 26 26 27 27 27 30 33 31 31 35 34 32 32 34 38 41 42 42 43 44 45 46 48 48 48
31 31 30 29 27 26 27 27 27 28 28 28 27 26 24 22 21 19 18 17 18 18 19 20 19 19 19 18 16 15 15 15 15 15 15 15 15 15 14 14 14 13 13 12 13 15 15 17 17 16 16 16 17 18 19 19 21 20 20 20 21 23 24 24 24 24 25 26 30 34 33 32 34 33 32 32 33 36 39 41 42 42 43 44 45 46 47 48
31 31 30 27 26 26 26 27 27 28 28 28 27 25 22 21 21 18 17 18 18 18 19 20 19 18 17 17 16 15 15 15 15 15 15 15 15 15 15 14 14 14 14 14 14 14 13 13 14 14 15 15 15 17 18 18 18 18 18 19 19 20 20 21 22 22 22 26 29 32 33 32 34 34 33 33 34 35 38 41 42 42 41 42 43 44 45 47
31 30 28 26 24 25 26 26 28 28 28 28 26 24 20 20 21 18 18 20 18 18 19 19 18 17 16 16 15 15 15 14 15 15 14 16 15 14 14 13 14 15 14 14 14 15 13 10 10 11 13 14 15 16 17 18 18 18 18 18 17 17 17 18 20 20 22 25 27 28 29 31 34 35 34 35 36 37 39 41 43 43 42 42 42 43 44 45
30 29 27 25 24 25 26 26 28 29 28 27 25 22 20 19 19 18 19 19 18 18 19 18 18 17 16 16 15 15 14 13 14 15 15 16 16 15 14 13 13 14 14 14 15 15 14 11 8 8 10 12 15 17 17 18 18 19 20 18 17 16 16 18 19 19 21 24 24 25 26 28 30 33 34 36 37 38 40 43 45 45 43 42 42 43 43 44
30 27 25 24 25 26 26 26 27 28 28 26 23 22 21 19 18 19 19 19 18 19 18 18 18 17 14 14 15 15 15 14 15 16 15 16 16 15 15 15 14 14 14 14 14 13 13 13 9 7 8 9 13 16 17 18 19 20 20 19 20 19 17 18 18 19 20 21 22 23 23 24 27 30 32 34 37 37 39 43 44 44 43 42 42 42 42 43
28 26 24 24 25 25 25 26 27 27 27 25 22 22 20 18 18 19 19 19 20 19 18 17 17 16 15 14 14 15 15 14 16 16 16 16 16 14 15 15 14 14 14 13 14 13 12 12 11 10 10 9 11 13 13 15 18 19 18 18 21 21 19 18 18 18 17 18 20 22 23 25 27 29 29 31 34 35 37 40 41 41 41 39 40 41 41 42
26 24 24 25 25 26 26 25 26 27 26 23 22 21 19 18 18 18 18 19 20 19 19 18 16 15 15 15 14 15 14 14 16 17 16 16 15 13 14 15 13 13 13 13 14 13 12 13 13 13 13 11 12 13 12 13 14 15 17 20 20 18 17 17 17 16 15 17 19 19 21 24 24 25 26 27 29 31 34 37 38 38 38 36 37 39 40 41
25 24 24 25 26 26 25 25 25 26 25 22 21 20 19 19 18 17 18 20 20 19 18 17 16 15 15 15 15 15 15 14 16 17 17 17 15 13 14 15 13 12 13 13 14 13 13 15 15 13 13 13 12 12 13 14 14 12 15 18 17 16 16 16 15 14 13 16 16 15 17 19 18 19 21 22 24 27 30 33 34 34 34 34 36 38 38 40
25 23 23 25 26 26 25 25 25 25 23 22 21 20 19 20 19 18 19 21 20 18 17 16 15 15 15 15 15 16 16 15 16 17 17 17 15 14 15 15 13 12 13 14 14 14 13 15 16 13 12 13 12 10 12 14 15 14 14 14 14 15 16 15 14 13 13 13 13 13 15 15 15 15 15 15 18 21 25 28 29 31 32 33 36 37 37 38
24 23 23 25 27 26 25 25 25 24 22 21 21 20 19 20 20 19 20 21 19 17 16 16 15 15 15 15 15 16 15 14 16 17 16 16 16 15 14 13 14 15 14 12 13 13 13 13 14 14 13 13 13 10 11 13 14 14 14 14 14 15 15 15 14 12 11 11 10 10 11 12 14 15 14 12 12 16 21 25 27 29 30 31 33 35 35 35
24 23 23 25 27 26 25 24 23 23 22 21 21 20 20 20 20 21 21 20 18 16 16 16 15 16 15 14 15 15 14 14 16 15 15 16 17 16 14 13 16 17 14 12 13 13 12 12 14 16 16 15 13 11 10 11 12 12 14 15 15 14 13 13 13 12 11 10 10 9 10 11 13 14 15 12 12 15 18 22 25 27 28 29 31 33 34 34
24 23 23 25 26 26 24 22 22 22 21 21 21 21 21 21 21 21 22 20 17 16 16 16 15 15 15 15 15 15 15 15 15 14 15 16 17 17 15 14 16 17 15 13 14 13 12 12 15 17 17 16 14 11 9 9 10 11 13 14 15 15 13 11 11 12 12 11 10 9 10 11 12 14 15 13 12 15 17 20 23 25 26 28 29 31 33 33
24 23 23 25 25 25 23 20 21 21 21 21 22 21 22 22 21 21 21 19 17 17 17 16 15 15 15 15 15 15 15 16 15 14 15 16 16 16 16 15 16 16 15 14 14 13 13 13 16 18 17 16 16 12 8 8 8 9 11 13 14 14 14 13 11 11 11 11 11 10 10 11 11 12 15 14 13 14 16 19 21 24 26 27 28 30 31 31
23 23 23 24 25 24 22 20 21 21 21 22 22 21 22 22 21 21 21 19 17 17 17 16 16 16 15 15 16 16 16 16 15 14 15 16 16 16 16 16 17 17 15 15 15 14 13 13 15 17 17 16 15 12 7 5 7 9 11 13 15 14 13 13 12 11 11 12 11 10 11 13 11 10 13 15 14 14 15 17 20 24 26 27 28 28 29 30
23 23 22 23 25 23 21 20 20 21 22 22 22 22 22 22 22 22 20 18 17 17 16 16 16 16 16 16 16 16 16 16 15 15 15 16 16 16 16 16 17 16 14 14 14 13 14 14 14 15 16 15 14 12 8 4 5 8 10 12 15 15 14 13 12 12 12 13 13 11 11 14 13 11 12 13 14 14 15 16 20 24 26 27 27 27 28 28
23 22 22 23 24 22 20 19 20 20 21 22 22 21 21 21 22 22 19 17 17 17 17 16 16 16 16 16 16 16 16 16 16 16 16 16 17 17 16 16 17 15 14 14 12 12 14 15 14 14 14 13 12 10 8 5 4 7 9 12 14 15 15 13 12 12 12 13 13 12 12 14 14 13 13 13 13 15 15 15 19 22 25 27 28 27 27 27
22 21 22 23 22 21 20 20 21 21 21 22 22 21 21 22 22 22 20 17 16 18 17 16 17 17 17 18 18 17 16 15 15 16 17 17 17 17 17 19 18 16 17 15 10 11 15 15 14 14 13 12 12 10 7 5 4 5 8 11 13 14 15 14 12 12 12 12 12 13 14 15 15 14 13 13 13 14 14 15 18 21 24 27 28 27 26 26
21 21 21 22 22 21 21 21 22 22 21 21 21 21 21 22 22 22 20 17 17 19 17 16 17 18 18 19 19 17 16 16 16 15 16 17 17 17 18 20 18 17 18 15 9 10 14 15 14 14 13 13 12 11 9 6 5 6 7 9 11 12 13 14 14 14 11 10 12 13 12 15 15 13 13 13 14 13 13 14 17 19 23 26 27 26 25 24
21 21 21 21 21 20 20 22 22 23 22 21 20 21 21 22 23 22 20 18 18 18 17 17 18 19 19 19 18 17 17 18 16 15 16 17 18 19 19 18 17 16 18 15 11 12 14 15 15 14 14 15 12 11 10 7 6 6 7 8 10 11 12 14 15 14 12 12 14 12 12 14 15 13 13 13 13 12 13 14 16 19 22 25 25 25 25 23
21 21 21 22 22 21 21 22 23 23 22 21 21 21 22 22 22 22 20 18 17 16 16 18 19 20 21 20 18 17 18 18 17 16 17 18 19 19 18 17 16 17 17 15 13 14 14 14 15 14 16 17 14 12 10 6 6 6 7 8 9 11 12 14 14 14 14 16 16 13 13 15 15 14 13 13 12 12 13 15 17 19 21 23 24 24 24 23
21 22 22 22 22 21 21 22 22 21 21 21 21 21 22 21 22 22 20 17 16 15 16 18 20 20 22 21 18 17 17 17 18 19 19 19 18 17 16 16 16 17 17 15 14 14 14 15 16 15 15 17 15 12 8 5 5 5 6 6 6 8 10 11 12 13 13 14 15 14 15 15 13 11 11 11 12 12 12 14 17 18 20 21 21 22 23 23
21 21 22 22 21 21 20 21 21 20 20 20 20 21 22 22 22 23 21 17 15 16 17 19 21 21 21 21 20 19 19 19 19 21 20 19 18 17 15 15 15 16 17 15 15 15 15 16 16 15 14 15 14 13 9 4 2 3 4 5 5 6 7 8 10 10 11 13 13 13 14 13 11 9 9 11 11 11 11 13 15 17 18 19 19 20 21 21
21 22 22 22 21 21 20 20 20 20 20 20 21 21 22 22 23 23 21 19 17 18 18 19 21 21 21 21 21 21 22 23 23 23 22 19 18 17 15 14 14 15 16 16 15 16 16 17 16 14 14 13 13 13 9 4 3 1 1 3 4 5 5 7 8 8 10 11 11 12 13 12 11 10 10 11 11 11 11 12 14 16 17 17 18 19 19 19
Wind_Direction
14 13 12 10 8 5 1 358 355 352 349 346 342 338 334 329 324 319 314 310 306 302 299 297 294 291 288 285 282 281 279 275 271 268 264 259 257 256 253 253 254 254 254 253 253 252 251 250 249 249 245 243 243 241 240 240 238 239 239 241 242 243 243 242 242 243 244 244 242 238 235 235 238 238 238 239 234 231 234 235 233 234 233 233 231 223 216 213
12 12 11 9 8 6 4 0 356 352 349 345 342 339 336 333 329 325 321 316 312 307 304 301 298 295 292 289 287 285 281 276 272 267 262 260 259 255 253 253 254 254 254 253 253 252 250 249 249 249 245 242 242 241 240 240 238 239 240 241 243 243 245 244 244 244 244 244 242 239 236 235 236 237 236 237 236 231 231 235 232 231 232 231 228 220 216 213
11 10 9 8 7 5 4 2 359 355 351 347 343 339 335 332 329 326 323 319 316 312 308 305 302 298 296 293 291 289 284 278 272 265 262 262 259 255 254 254 254 254 254 252 252 251 250 249 248 247 245 242 241 240 239 239 239 240 240 242 243 245 246 247 247 245 245 243 241 240 237 236 236 235 235 235 236 232 229 231 230 228 227 226 223 218 216 214
8 7 6 5 4 3 2 0 359 356 353 350 346 342 337 333 329 326 322 319 316 313 310 308 305 301 299 296 294 290 284 279 271 264 265 265 261 257 256 255 255 255 254 253 252 251 250 249 248 246 244 243 242 241 240 239 239 240 239 241 244 246 246 247 249 247 247 246 243 242 238 237 236 234 235 233 233 233 229 228 228 226 225 221 218 215 215 214
6 5 4 2 1 360 359 358 357 355 353 351 348 345 341 336 332 328 324 320 317 314 311 309 306 303 301 298 296 290 284 279 270 266 268 266 262 260 258 257 256 256 255 254 253 252 251 249 247 246 244 244 243 242 241 239 239 240 240 242 244 245 245 246 249 248 248 248 247 245 241 240 237 234 234 232 232 233 230 228 228 226 224 221 218 218 217 215
4 3 2 0 358 357 356 355 354 353 351 350 348 346 343 340 336 332 328 323 319 316 313 310 307 305 302 299 295 288 282 276 271 270 271 268 264 261 260 259 258 257 256 255 254 252 252 250 247 245 244 244 242 241 242 242 240 241 242 243 245 244 244 246 248 248 247 247 245 243 243 243 241 237 234 232 233 234 231 229 229 227 225 224 221 221 221 219
1 0 360 358 356 355 354 352 351 350 349 348 346 344 343 341 338 335 331 327 322 318 315 311 308 306 304 301 294 286 280 275 273 273 271 268 264 263 261 260 259 258 256 255 254 253 251 250 248 245 244 244 243 241 243 244 242 241 242 244 245 245 245 246 247 248 247 246 245 244 244 243 241 239 237 237 236 236 235 231 229 228 226 225 223 222 222 221
359 358 357 356 354 353 353 351 350 348 347 346 345 343 341 340 338 335 332 329 325 321 317 312 309 306 304 301 294 288 280 275 275 274 271 267 265 264 262 260 259 256 255 254 253 253 251 249 248 246 245 244 244 243 245 245 243 242 243 244 245 245 246 246 247 248 248 247 245 245 244 242 241 240 239 240 239 236 236 232 229 228 225 224 223 222 222 220
357 356 355 354 352 352 351 350 349 347 346 345 343 342 340 339 337 335 333 329 326 322 318 314 310 307 304 299 294 288 281 275 275 274 272 269 266 264 261 260 259 256 255 254 252 252 250 248 248 247 245 246 245 246 246 244 242 242 244 245 245 246 247 248 247 246 247 247 245 246 245 243 243 242 239 238 237 236 235 233 228 227 225 224 223 222 222 221
354 354 353 352 351 350 350 349 348 347 345 343 342 340 340 338 337 335 332 329 326 322 319 316 311 307 304 299 294 288 281 277 274 274 273 270 267 264 261 259 259 258 256 255 254 252 250 248 247 247 245 246 245 245 245 242 243 246 247 247 246 247 247 247 247 246 246 247 245 244 243 243 242 239 237 236 235 234 234 234 229 226 225 224 224 224 223 224
353 352 351 351 350 349 348 348 347 346 344 342 341 340 339 338 336 335 332 329 325 322 319 316 313 309 304 300 293 286 283 278 274 274 272 270 268 264 261 259 258 258 257 257 255 253 251 248 246 247 246 246 247 246 245 243 246 249 249 249 247 247 247 246 246 247 246 245 244 243 244 243 240 237 236 235 234 234 234 234 231 228 227 225 225 225 225 226
352 351 350 349 348 347 347 346 346 345 343 342 341 340 339 337 336 334 332 328 325 322 319 318 316 311 306 301 293 287 285 279 275 275 272 270 268 264 261 259 257 257 257 257 256 254 251 249 247 247 247 247 248 247 246 247 250 250 249 249 248 248 248 245 244 245 244 243 242 244 246 243 238 236 237 236 236 236 236 235 232 231 229 228 227 227 226 227
351 350 349 348 347 347 346 345 345 344 343 341 340 340 339 337 335 333 331 329 327 325 322 320 318 314 310 303 296 290 286 281 279 278 274 272 270 266 262 259 258 257 256 257 256 254 252 250 248 248 249 248 248 247 249 251 250 249 248 248 249 250 249 245 243 243 243 243 241 241 245 242 237 238 238 236 236 236 236 235 233 231 231 230 229 228 227 227
350 349 348 347 346 346 345 344 344 343 342 341 340 340 338 337 336 334 332 331 331 329 325 323 320 317 312 305 301 296 290 285 283 282 278 276 275 271 265 260 258 257 255 255 256 255 252 250 249 250 250 248 248 250 252 251 249 249 248 247 248 248 248 249 247 243 243 244 240 238 243 242 238 238 238 236 235 234 234 234 232 231 231 231 230 229 227 227
349 348 348 347 345 344 344 343 343 343 342 340 340 340 338 337 337 336 337 337 335 332 329 327 324 321 316 310 308 305 298 292 288 285 282 280 277 273 269 264 259 257 256 255 256 256 253 251 251 251 251 250 250 251 252 251 249 249 248 248 248 246 247 251 250 244 244 246 241 237 243 243 239 239 238 237 236 234 233 234 233 230 230 230 229 228 228 228
348 347 347 346 344 344 343 343 342 342 342 340 340 339 338 338 338 339 341 340 337 336 335 333 330 327 323 318 316 315 308 299 295 290 284 281 277 273 271 268 263 260 259 258 257 257 256 254 252 251 251 251 250 250 252 253 252 250 248 247 249 249 249 250 250 247 245 247 244 240 243 243 241 240 239 236 236 234 233 233 233 231 229 229 229 228 227 227
347 347 346 345 344 343 343 342 342 342 342 341 340 339 339 339 339 340 342 341 340 340 339 340 337 333 332 329 324 323 316 305 301 296 289 284 277 273 271 269 266 264 263 261 259 257 256 255 253 252 252 252 250 250 253 253 252 252 250 249 250 249 249 249 250 251 249 246 245 244 244 244 242 242 242 238 236 235 233 232 233 232 229 228 228 227 227 226
347 346 345 345 344 343 343 342 342 343 342 341 340 339 338 339 338 340 341 341 341 341 341 342 342 339 335 335 331 324 320 312 306 300 294 289 279 274 271 268 268 267 266 264 260 257 255 255 254 253 254 253 251 250 250 250 250 250 249 250 251 250 249 248 248 250 252 250 247 246 246 246 245 244 243 241 239 236 234 232 231 232 229 228 227 226 226 226
346 346 345 344 343 343 343 343 343 343 342 342 341 340 341 342 339 338 340 341 342 343 342 341 344 343 334 332 330 325 323 318 312 305 299 293 282 277 274 271 270 268 266 264 262 259 255 256 255 253 253 252 251 249 249 251 251 249 248 249 251 251 250 248 249 250 252 252 250 248 248 247 246 244 242 241 239 237 235 233 231 231 229 227 226 226 225 225
346 345 345 344 343 344 343 344 344 343 343 343 343 343 344 344 341 339 341 342 343 343 342 340 340 339 332 330 330 328 327 323 318 310 303 297 286 281 279 275 273 269 265 261 261 261 257 256 255 253 253 252 252 250 250 252 253 251 251 251 251 252 252 251 251 253 253 253 251 249 250 249 247 244 242 242 241 237 234 233 231 230 229 227 226 226 225 225
346 345 345 344 344 344 344 344 345 344 344 345 345 346 346 345 343 340 341 341 341 342 340 339 338 334 330 329 329 331 329 323 319 313 306 300 291 285 281 277 274 271 266 260 261 263 260 257 256 255 253 251 250 250 250 251 253 252 251 253 252 252 253 253 252 253 253 254 253 251 252 251 248 245 242 241 240 237 234 232 230 230 229 227 226 226 225 224
345 345 345 344 344 344 344 345 345 345 345 346 348 349 347 345 343 341 341 340 339 341 341 340 341 336 333 329 328 331 328 321 318 315 309 304 295 287 281 278 273 270 269 267 267 267 262 259 258 255 252 250 250 250 250 251 252 251 251 253 253 252 254 254 251 251 251 252 253 253 253 251 249 247 243 239 237 237 235 232 231 230 228 227 226 225 225 224
345 344 344 344 344 345 345 345 345 346 346 347 349 350 347 344 343 342 342 341 339 342 343 343 342 339 337 333 329 330 328 322 317 314 311 306 299 290 283 279 274 271 271 268 266 265 263 261 259 254 250 249 251 251 251 252 252 251 251 252 252 252 253 253 252 252 252 250 252 254 254 251 248 247 244 239 236 237 237 235 232 230 228 228 226 225 225 224
344 343 343 344 345 345 345 345 346 348 347 347 348 348 345 343 343 343 343 342 342 341 342 342 341 339 337 336 333 331 328 322 316 312 311 307 300 293 286 280 276 274 271 266 264 263 262 261 260 257 252 249 252 253 251 253 253 251 249 249 252 252 251 252 253 255 255 252 251 254 256 252 248 247 246 241 237 236 236 235 233 231 229 228 227 225 224 224
343 343 342 344 345 345 345 346 348 348 347 346 346 345 344 342 342 344 344 345 344 342 342 343 342 340 338 338 336 333 331 327 324 321 319 314 306 298 292 285 280 277 272 268 267 267 266 263 260 259 256 252 252 253 251 251 254 254 250 248 250 252 252 252 254 256 256 254 249 249 253 252 248 247 247 243 239 236 234 234 232 231 228 227 226 225 224 224
343 343 342 343 345 345 346 347 347 348 347 346 345 344 344 343 343 345 346 347 345 343 344 345 344 342 341 342 340 340 342 340 337 337 338 336 326 315 305 295 287 282 277 273 271 270 269 264 258 257 257 254 253 253 251 249 253 256 251 248 250 251 252 252 253 253 252 252 249 245 248 251 250 248 246 244 240 236 234 233 231 230 228 225 224 224 223 223
342 343 342 343 345 346 347 347 347 348 348 345 344 344 344 344 345 347 348 349 346 344 345 344 345 344 344 345 346 349 351 346 346 352 355 352 346 341 331 317 302 292 286 281 277 275 273 267 259 257 256 255 254 254 251 247 250 254 251 247 249 250 251 251 252 252 251 253 252 248 248 252 251 247 246 245 242 238 235 233 231 229 228 226 224 224 223 222
342 342 342 342 343 345 346 347 347 348 347 345 345 344 344 345 347 349 352 351 345 344 346 345 345 345 346 347 350 352 348 347 353 354 353 354 354 353 348 342 331 313 301 286 280 282 281 273 264 258 255 253 252 252 249 246 250 253 251 248 247 248 249 251 251 252 252 253 252 249 248 250 251 247 245 245 243 240 236 233 232 229 228 226 225 224 223 222
341 341 342 341 342 345 347 347 347 348 347 346 346 344 344 347 348 351 354 349 343 345 347 346 345 346 348 349 351 352 350 353 357 349 349 353 353 353 349 348 347 338 327 305 290 291 287 280 274 266 257 252 251 250 246 245 250 253 252 250 249 248 248 249 250 251 251 249 249 249 246 248 251 247 244 244 242 240 236 232 231 229 228 227 225 224 224 223
341 341 341 341 342 345 347 347 347 347 347 347 345 344 346 349 351 355 354 346 344 344 346 347 347 347 352 353 351 353 355 355 355 353 354 355 352 352 350 348 351 347 340 329 311 303 294 283 278 268 258 254 252 250 246 245 248 252 254 253 253 252 249 249 249 249 250 248 248 248 246 247 250 247 243 243 241 238 235 232 230 227 226 226 225 224 224 223
341 341 340 341 343 345 346 347 347 347 347 346 346 346 347 349 353 359 351 344 344 345 346 348 348 349 354 356 352 353 357 355 356 360 359 358 356 355 355 354 353 350 345 340 331 324 313 294 282 269 257 252 251 251 250 248 249 251 253 254 256 257 253 252 251 247 247 249 249 249 248 246 248 247 245 244 242 237 233 231 229 226 224 223 223 223 223 223
342 342 342 343 344 345 346 347 348 348 347 346 347 348 349 350 353 355 347 345 346 346 347 348 349 351 351 353 352 351 355 357 359 2 358 359 359 356 359 358 355 354 348 343 339 335 329 312 295 279 261 249 250 254 253 252 251 250 251 251 250 254 254 253 251 247 248 251 251 250 249 247 248 248 247 247 244 239 233 230 229 226 224 223 222 222 223 223
344 344 345 346 345 345 346 346 348 348 347 347 349 349 353 354 352 349 347 348 346 344 347 347 348 350 348 351 352 351 355 358 0 0 355 357 358 354 355 353 354 355 348 345 346 342 340 336 326 303 276 255 249 253 253 253 251 248 247 245 241 244 248 250 251 252 253 255 256 256 254 251 252 250 246 246 245 239 233 229 227 226 225 223 223 222 223 223
344 345 346 347 346 345 345 346 347 348 348 349 350 351 355 355 349 347 348 346 343 343 347 348 347 348 350 351 351 353 357 356 358 359 354 355 355 350 349 347 350 352 348 349 351 349 343 339 335 319 302 276 256 253 253 252 252 249 246 243 240 240 244 248 251 253 255 258 262 262 258 252 252 251 247 244 242 237 231 227 225 225 224 224 224 222 222 223
345 346 347 347 347 346 345 346 348 349 349 350 352 353 355 352 347 348 347 345 345 344 344 346 349 350 348 347 347 353 356 352 354 356 353 353 351 347 348 347 348 351 350 347 347 350 343 330 325 316 309 299 278 269 258 250 252 251 243 239 240 239 243 250 252 253 257 262 263 260 258 256 256 255 249 244 240 234 228 225 223 224 224 224 224 222 222 222
347 347 348 348 348 347 347 347 349 350 351 352 353 353 353 349 347 349 347 345 346 344 343 346 351 351 347 345 346 350 351 350 351 351 350 348 346 346 348 347 349 349 346 342 340 345 342 332 331 322 310 300 284 274 262 249 250 249 239 237 240 238 240 249 256 259 262 263 262 259 260 263 261 253 247 242 236 230 224 221 220 221 222 222 222 222 222 222
347 347 348 349 348 347 347 348 349 350 352 354 354 351 349 347 348 348 345 345 344 346 349 348 347 348 346 344 345 346 347 348 349 349 349 348 346 349 347 346 348 342 338 338 334 336 336 331 333 327 313 306 292 275 262 251 245 243 240 239 240 242 243 246 254 260 258 258 260 258 258 260 255 246 242 238 230 223 220 218 218 219 219 219 221 221 222 222
344 345 347 348 348 348 348 348 349 351 353 354 352 350 349 348 348 346 343 343 344 348 352 347 343 345 345 344 343 344 347 347 346 348 351 350 349 350 347 345 346 339 334 335 332 330 332 331 335 336 323 318 314 291 269 257 246 240 241 239 235 238 241 241 245 249 247 251 259 261 259 254 242 233 233 231 222 214 214 215 216 217 217 219 221 221 223 222
342 344 346 347 347 348 348 348 349 351 353 353 350 348 348 347 345 343 341 343 345 349 348 343 342 344 344 343 341 342 346 344 344 347 349 350 349 347 347 347 343 338 334 334 333 331 331 332 335 337 329 323 322 306 278 261 249 242 242 240 236 235 236 236 236 235 235 243 254 266 267 250 232 222 216 214 207 203 206 209 211 213 215 218 219 220 222 223
342 343 343 345 346 346 346 347 350 352 353 351 348 345 346 347 344 342 341 343 345 346 344 342 344 343 341 340 338 340 344 340 340 344 343 344 343 340 346 350 344 340 335 330 336 336 332 330 329 331 331 324 317 309 286 258 245 242 241 238 234 232 232 233 232 226 227 235 243 259 265 247 229 215 206 207 207 204 204 207 210 212 215 218 218 218 220 222
342 342 341 343 345 345 346 349 350 351 351 349 347 344 345 347 344 343 344 345 344 343 343 343 343 342 341 340 338 339 340 337 338 340 337 338 340 340 347 351 344 343 341 334 336 339 335 330 326 326 330 327 317 309 292 260 239 236 238 233 228 224 220 222 228 227 229 235 238 250 259 246 229 215 209 212 214 211 208 210 212 214 216 219 218 217 218 220
342 341 340 342 345 345 347 348 348 349 350 348 346 343 342 345 345 344 345 347 346 344 344 343 342 342 341 339 338 338 338 335 334 337 335 335 337 336 339 344 339 336 339 338 336 338 337 332 325 322 325 325 320 312 289 259 241 235 233 227 222 217 213 214 223 229 233 237 239 248 251 239 228 218 215 218 221 219 216 215 216 217 218 220 220 219 218 219
341 339 338 341 344 346 348 347 346 349 348 344 344 343 341 343 345 346 346 346 345 344 344 343 343 342 340 337 338 337 337 334 330 331 334 335 335 331 332 338 337 334 336 338 338 339 338 332 326 326 328 329 329 327 309 266 245 237 230 220 215 217 219 223 231 236 238 237 237 245 243 232 226 221 219 225 232 230 223 221 221 220 220 221 222 220 218 219
339 338 338 342 344 347 349 346 346 347 345 344 345 344 343 343 344 345 345 344 344 345 344 342 341 341 339 337 336 335 335 334 331 328 330 335 336 334 334 335 335 336 336 332 335 338 335 332 330 331 336 340 343 349 349 313 254 235 226 215 213 219 225 234 240 239 240 240 236 238 240 234 232 235 234 238 242 239 232 229 226 223 222 223 223 221 219 219
339 339 339 342 346 349 349 346 347 347 345 346 346 344 344 344 343 344 343 340 343 345 343 341 341 341 340 337 333 330 331 331 332 331 330 332 335 336 337 334 332 335 330 323 331 339 332 329 330 329 333 340 339 343 351 336 280 242 228 218 214 218 223 230 236 232 235 241 235 232 241 245 245 246 246 245 245 242 238 234 229 225 223 224 223 222 220 220
341 341 340 342 346 349 349 348 349 348 346 347 346 344 346 345 343 344 344 341 343 345 342 341 344 343 341 339 334 331 331 329 328 330 329 331 337 339 339 336 332 328 323 320 331 343 334 330 329 323 320 327 326 321 329 338 307 258 236 226 221 221 223 225 229 229 232 240 239 235 243 251 252 250 248 247 248 247 242 237 234 229 226 225 223 223 222 222
342 342 342 343 344 346 346 347 349 347 345 346 346 345 346 345 343 344 344 341 342 344 342 342 346 345 342 340 337 333 332 330 326 326 326 328 334 336 335 334 331 329 332 335 344 347 337 331 331 326 316 320 323 315 311 314 297 267 242 233 230 227 224 223 228 232 230 234 240 240 241 244 246 250 251 249 250 250 244 239 237 233 230 227 224 224 225 225
342 341 342 343 343 343 343 342 344 345 344 344 345 346 346 345 345 345 343 340 340 342 344 343 343 343 340 338 337 333 331 330 327 328 331 331 333 336 338 339 339 342 348 352 352 348 340 333 335 335 324 323 326 318 307 297 281 256 228 227 232 227 222 223 228 231 225 227 238 244 240 238 243 252 254 248 248 250 247 244 243 236 230 226 224 225 228 229
342 341 340 341 342 340 339 339 341 344 344 344 346 347 346 345 345 344 341 340 339 339 342 341 338 338 338 337 336 334 332 331 327 327 332 331 331 335 338 340 344 349 354 353 347 344 340 335 337 336 327 326 329 325 314 292 267 245 221 219 225 225 224 226 230 229 226 232 242 250 248 245 247 252 250 247 251 254 252 248 243 237 229 223 222 226 229 230
341 341 339 340 340 339 339 338 340 343 344 345 346 345 344 343 343 342 339 338 337 335 338 338 336 336 336 335 333 329 327 325 319 318 324 326 327 332 337 337 341 348 350 348 343 341 336 335 339 337 330 332 338 341 334 302 255 238 227 224 228 231 230 230 231 228 228 238 245 249 250 250 250 251 251 255 258 259 255 245 237 233 227 220 221 227 230 232
340 340 339 339 339 339 340 338 340 344 344 345 345 343 343 343 342 342 339 335 333 333 335 335 334 336 336 333 330 325 322 322 316 311 313 314 314 320 328 330 335 344 347 346 343 341 337 336 339 338 332 334 345 353 350 333 237 226 244 252 247 239 232 231 232 229 229 238 245 245 245 248 253 259 264 264 260 257 253 240 230 226 221 217 220 228 232 235
339 339 340 340 339 340 341 338 340 343 342 343 344 342 341 340 339 341 340 338 335 331 332 333 332 334 336 333 330 326 323 321 316 311 308 305 302 306 311 316 324 335 344 346 345 345 344 340 338 338 334 333 344 355 1 28 67 67 294 278 262 252 250 247 245 239 233 235 240 242 244 251 261 268 271 270 264 259 250 234 223 219 217 216 220 227 232 236